Find GPS IIR-18(M)

NORAD ID: 32384 Int'l Des: 2007-062 Owner: AFSMC Country: US Constellation: GPS operational
MEOCIRCULARGNSS

現在のビュー

3D地球を読み込み中...

About GPS IIR-18(M)

GPS IIR-18(M) (NORAD 32384) is a GPS constellation satellite launched Dec 20, 2007 by AFSMC of US. It operates in MEO, CIRCULAR, GNSS orbit with a mass of 1077.00 kg.

GPS IIR-18(M)について

説明を読み込み中...

次回通過

Passes for default location (London). Set your location on the main map for personalized predictions.

高度履歴

Loading altitude history...

軌道要素

1 32384U 07062A 26194.44170876 -.00000002 00000-0 00000+0 0 9996
2 32384 55.0109 273.0962 0036045 167.3754 169.6583 2.00561466136033
Epoch: Jul 13, 2026 • Age: 21 hours

現在のステータス

高度 20194.1 km
遠地点 / 近地点 N/A
速度 3.87 km/s
衛星直下点 -51.80°S, 107.32°E
打ち上げ日 Dec 20, 2007
運用期間 18.5 years
タイプ navigation

技術仕様

分類 Payload
質量 1077.00 kg
乾燥質量 910.00 kg
総質量 2032.00 kg
長さ 1.50 m
直径 1.90 m
スパン 19.30 m
形状 Box + 2 Pan
製造者 LMVF
バスタイプ Series 4000
フェーズステータス In Orbit
所有者/国 AFSMC/US

Most Searched